Probability
4 4 3 2 2 1 1 1 1 0 0 0 0 0 0 0 0 1 2 2 1 0 0 0 0 0 0 0 0 0 0 0 0 0 0 0 1 1
5 5 3 3 3 2 1 0 0 0 0 0 0 0 0 0 0 0 1 2 1 0 0 0 0 0 0 0 0 0 0 0 0 0 0 0 0 1
6 5 4 3 3 3 1 1 0 0 0 0 0 0 0 1 1 1 0 1 1 0 0 0 0 0 0 0 0 0 0 0 0 0 0 0 0 0
8 6 4 3 3 3 3 3 2 1 0 0 1 1 0 1 2 1 1 1 1 0 0 0 0 0 0 0 0 0 0 0 0 0 0 0 0 0
9 7 4 2 2 2 4 3 2 1 0 0 1 2 2 3 5 4 3 3 2 0 0 0 0 0 0 0 0 0 0 0 0 0 0 0 0 0
9 7 4 1 0 1 1 2 1 1 1 0 1 3 5 7 7 6 6 6 3 1 0 0 0 0 0 0 0 0 0 0 0 0 0 0 0 0
7 6 3 1 0 0 0 0 1 2 3 3 3 6 8 8 5 5 6 6 3 1 1 0 0 0 0 0 0 0 0 0 0 0 0 0 0 0
5 4 1 0 1 1 0 0 1 2 4 5 6 7 7 5 3 3 4 4 2 1 1 0 0 0 0 0 0 0 0 0 0 0 0 0 0 0
4 3 1 1 1 1 0 0 0 0 2 3 4 5 4 2 2 2 2 2 1 1 0 0 0 0 0 0 0 0 0 0 0 0 0 0 0 0
3 3 2 1 1 1 0 0 0 0 0 1 1 1 1 1 1 1 1 1 0 0 0 0 0 0 0 0 0 0 0 0 0 0 0 0 0 0
1 1 1 0 0 0 0 0 0 0 0 0 0 0 0 0 0 0 0 0 0 0 0 0 0 0 0 0 0 0 0 0 0 0 0 0 0 0
0 0 0 0 0 0 0 0 0 0 0 0 0 0 0 0 0 0 0 0 0 0 0 0 0 0 0 0 0 0 0 0 0 0 0 0 0 0
0 0 0 0 0 0 0 0 0 0 0 0 0 0 0 0 0 0 0 0 0 0 0 0 0 0 0 0 0 0 0 0 0 0 0 0 0 0
0 0 0 0 0 0 0 0 0 0 0 0 0 0 0 0 0 0 0 0 0 0 0 0 0 0 0 0 0 0 0 0 0 0 0 0 0 0
0 0 0 0 0 0 0 0 0 0 0 0 0 0 0 0 0 0 0 0 0 0 0 0 0 0 0 0 0 0 0 0 0 0 0 0 0 0
0 0 0 0 0 0 0 0 0 0 0 0 0 0 0 0 0 0 0 0 0 0 0 0 0 0 0 0 0 0 0 0 0 0 0 0 0 0
0 0 0 0 0 0 0 0 0 0 0 0 0 0 0 0 0 0 0 0 0 0 0 0 0 0 0 0 0 0 0 0 0 0 0 0 0 0
0 0 0 0 0 0 0 0 0 0 0 0 0 0 0 0 0 0 0 0 0 0 0 0 0 0 0 0 0 0 0 0 0 0 0 0 0 0
0 0 0 0 0 0 0 0 0 0 0 0 0 0 0 0 0 0 0 0 0 0 0 0 0 0 0 0 0 0 0 0 0 0 0 0 0 0
0 0 0 0 0 0 0 0 0 0 0 0 0 0 0 0 0 0 0 0 0 0 0 0 0 0 0 0 0 0 0 0 0 0 0 0 0 0
0 0 0 0 0 0 0 0 0 0 0 0 0 0 0 0 0 0 0 0 0 0 0 0 0 0 0 0 0 0 0 0 0 0 0 0 0 0
0 0 0 0 0 0 0 0 0 0 0 0 0 0 0 0 0 0 0 0 0 0 0 0 0 0 0 0 0 0 0 0 0 0 0 0 0 0
0 0 0 0 0 0 0 0 0 0 0 0 0 0 0 0 0 0 0 0 0 0 0 0 0 0 0 0 0 0 0 0 0 0 0 0 0 0
Wind_Speed
6 6 5 3 3 3 3 3 4 3 2 4 3 2 1 1 2 2 1 5 2 0 1 2 2 3 3 4 4 5 5 6 7 7 8 9 10 11
4 4 4 3 2 3 3 3 4 5 3 0 1 1 2 2 3 2 1 5 4 3 2 2 3 3 3 3 4 4 5 5 6 7 8 8 9 10
5 5 5 3 3 3 3 3 3 4 4 3 1 2 1 3 2 3 2 2 3 5 4 3 3 3 3 3 3 4 4 5 6 7 7 8 9 10
6 5 5 4 4 3 3 3 2 3 4 4 1 1 1 1 2 3 2 2 1 7 6 4 4 4 4 4 4 4 5 5 6 7 7 8 9 9
5 5 5 5 4 2 2 2 2 2 3 3 2 0 1 1 2 2 1 2 3 4 5 4 4 3 3 3 4 4 5 5 6 7 7 8 9 10
3 3 3 3 3 3 2 1 1 1 1 2 2 1 1 1 2 3 2 2 3 3 3 1 2 3 3 2 3 5 5 5 6 7 7 8 9 10
5 4 4 6 7 4 2 1 0 1 1 1 1 1 2 3 3 4 4 4 2 3 4 4 2 2 1 3 4 6 6 6 7 7 8 9 9 10
6 6 7 8 11 12 13 12 9 4 3 2 2 2 3 4 4 5 5 5 4 4 6 6 4 4 4 3 6 5 5 6 7 8 8 9 10 11
6 5 5 7 7 8 11 12 14 14 10 5 5 5 4 5 6 5 5 6 6 6 6 6 5 5 5 2 5 2 2 5 7 8 9 10 11 12
6 6 6 6 6 6 8 9 10 10 9 7 7 7 7 6 6 5 5 5 5 2 4 6 6 6 7 6 4 4 3 5 7 8 10 10 11 13
8 8 8 9 9 6 8 9 9 8 11 12 10 7 6 6 7 5 6 6 6 5 4 6 7 8 8 7 2 5 6 8 9 10 10 10 11 13
9 10 13 11 9 7 7 7 7 6 5 5 4 3 2 3 2 5 6 7 7 6 5 6 8 8 8 6 7 8 8 7 9 11 11 11 10 11
8 8 9 12 12 10 8 7 6 3 2 2 2 2 2 3 4 5 6 6 7 7 7 8 8 8 9 10 10 9 9 9 9 8 8 8 9 10
9 8 9 12 11 10 8 6 2 2 1 2 2 3 4 5 5 6 6 6 6 8 8 8 8 9 10 11 11 9 9 9 9 9 9 8 8 10
10 13 11 10 9 8 7 2 1 1 3 3 4 4 4 4 5 4 4 4 6 7 4 5 8 9 9 11 11 11 11 10 8 9 9 10 10 10
10 11 9 6 5 5 4 2 3 5 5 4 4 4 4 4 5 6 6 7 7 6 4 5 7 9 10 11 11 11 10 9 9 10 10 10 10 9
7 6 5 4 4 4 4 4 3 3 4 4 4 5 5 5 6 6 6 7 7 8 7 6 7 7 10 11 10 9 10 10 10 10 10 11 10 10
3 5 5 4 4 4 3 3 4 4 4 4 4 5 6 6 6 6 7 7 8 8 8 8 8 9 9 7 5 9 9 10 10 11 11 11 11 10
4 5 4 4 3 3 3 4 4 4 4 4 5 6 6 7 7 7 7 7 8 9 9 8 8 9 11 11 8 5 10 11 11 11 10 11 12 11
4 5 4 4 3 3 4 4 4 4 4 5 5 6 6 7 7 7 7 8 9 9 9 8 8 9 10 12 12 11 9 10 10 11 12 11 11 11
5 4 4 4 4 4 4 4 4 4 5 6 5 6 7 7 7 8 8 8 9 9 10 9 8 9 10 10 10 10 9 7 8 10 12 12 12 11
4 4 4 4 4 3 3 3 4 4 5 5 6 6 7 7 8 9 9 9 9 9 11 10 10 9 9 10 11 12 12 11 10 10 10 9 10 11
4 4 3 3 3 2 3 4 5 5 5 6 7 7 7 7 7 8 9 9 9 10 11 10 10 9 10 10 11 11 14 13 10 10 8 5 9 13
Wind_Direction
199 197 224 212 231 249 262 273 277 269 221 169 203 126 241 68 44 261 246 109 127 144 295 296 295 290 287 286 284 286 287 288 287 284 283 281 276 272
208 202 220 222 217 228 242 255 272 283 284 188 194 93 18 314 88 330 7 122 106 82 34 350 330 319 309 303 301 302 303 301 298 295 292 289 285 280
196 195 202 230 227 226 227 239 245 258 263 255 179 109 58 335 16 328 300 262 114 97 70 37 14 1 351 339 332 331 329 325 320 316 311 305 300 295
195 192 197 197 206 242 243 244 251 273 270 273 261 162 118 344 341 302 321 327 8 103 93 69 48 34 27 19 12 6 359 351 345 339 331 323 315 308
192 193 199 200 198 205 240 247 245 238 266 266 247 18 270 9 305 291 323 332 309 124 126 119 87 61 48 40 31 30 20 7 357 349 342 335 328 319
166 166 170 176 177 188 196 224 259 257 230 254 254 227 273 15 314 318 314 329 322 334 5 350 148 171 151 116 65 40 20 3 351 344 339 333 327 320
136 121 104 87 68 56 49 82 177 263 252 252 275 308 20 5 349 331 329 320 322 353 329 309 288 281 215 159 98 42 17 360 345 338 335 331 325 319
131 121 111 101 90 78 67 57 44 32 14 356 16 34 30 12 354 332 336 327 324 14 330 315 318 315 316 334 66 46 7 349 340 335 331 327 322 317
125 126 118 107 110 107 95 86 69 56 45 33 48 36 33 20 353 341 352 336 329 331 319 308 317 314 310 354 111 83 336 325 323 321 320 320 317 312
103 109 110 105 97 103 101 88 74 59 51 54 58 47 40 17 354 335 322 302 277 290 335 310 322 317 314 304 175 182 246 280 291 297 300 304 306 305
94 89 96 95 76 82 101 99 93 89 83 82 79 81 68 39 1 339 341 323 323 331 1 322 321 318 307 296 261 202 244 255 263 272 279 285 294 295
95 83 74 80 70 60 92 97 93 83 80 97 104 128 77 71 23 355 343 329 326 323 17 331 320 322 312 311 323 315 299 276 258 256 258 264 278 297
105 96 86 78 71 61 65 77 75 65 80 70 68 53 33 15 8 6 355 333 328 323 342 331 318 317 308 308 310 310 313 313 310 300 272 252 254 274
102 99 96 89 79 71 72 73 42 292 40 39 27 21 11 9 4 350 340 325 312 303 308 314 310 314 310 307 311 316 316 314 313 313 314 308 279 261
96 100 104 107 106 94 90 76 301 16 30 24 21 15 5 358 327 316 309 298 280 276 291 309 305 309 305 304 308 312 314 315 317 318 317 316 315 310
107 111 112 105 107 109 127 104 57 38 15 18 8 357 344 336 333 338 331 327 316 312 313 301 293 297 297 303 303 305 310 313 318 319 320 313 308 308
123 129 126 118 100 85 74 60 46 44 25 12 358 350 346 342 341 339 330 320 322 325 326 323 314 301 293 293 299 307 314 315 317 324 315 309 310 309
119 107 97 87 78 70 62 59 47 32 14 0 354 350 345 340 336 334 333 330 327 326 326 326 322 315 307 300 299 311 314 317 318 317 309 308 309 314
114 99 95 89 78 66 53 43 38 34 3 352 352 348 341 336 335 336 335 333 330 327 325 324 325 325 321 319 320 311 314 313 312 311 311 310 308 311
99 97 95 88 74 56 45 34 23 15 3 351 350 346 340 335 335 334 334 338 329 322 322 325 331 333 323 314 310 310 303 308 314 314 314 311 307 301
100 96 90 81 67 54 41 23 11 5 2 340 348 344 336 333 335 332 329 331 317 319 325 326 333 315 299 298 301 308 317 308 296 302 311 313 316 316
95 90 79 67 60 46 30 11 1 2 355 344 349 340 336 333 332 328 327 326 324 325 323 320 321 315 312 313 314 316 319 319 305 274 269 281 312 317
84 82 85 79 67 45 25 4 354 360 358 350 344 339 336 332 328 326 325 324 325 326 325 324 325 321 320 318 316 316 319 323 323 323 320 276 260 265